Regional Weather Roundup
Issued by NWS Albany, NY

Home | Current Version | Previous Version | Graphics & Text | Print | Product List | Glossary Off
Versions: 1 2 3 4 5 6 7 8 9 10 11 12 13 14 15 16 17 18 19 20 21 22 23 24 25 26 27 28 29 30 31 32 33 34 35 36 37 38 39 40 41 42 43 44 45 46 47 48 49 50

000
ASUS41 KALY 080710
RWRALY

NEW YORK STATE HOURLY WEATHER ROUNDUP
NATIONAL WEATHER SERVICE ALBANY NY
200 AM EST THU DEC 08 2016

NOTE: "FAIR" INDICATES FEW OR NO CLOUDS BELOW 12,000 FEET WITH NO
SIGNIFICANT WEATHER AND/OR NO OBSTRUCTIONS TO VISIBILITY.

NYZ032-033-038>043-046>054-057>066-NYZ062>081-082-084-080800-
EAST


CITY           SKY/WX    TMP DP  RH WIND       PRES   REMARKS
ALBANY         FOG       34  33  96 CALM      29.98S VSB 1/8
GLENS FALLS    CLOUDY    31  27  85 CALM      29.96S FOG
POUGHKEEPSIE   PTCLDY    29  28  96 CALM      29.98S FOG
NEWBURGH       MOCLDY    34  32  93 W6        29.98F WCI  29
MONTGOMERY     MOCLDY    32  30  92 SW3       29.97F FOG
WHITE PLAINS   CLEAR     36  33  89 W3        29.97S
ISLIP          PTCLDY    32  31  96 CALM      29.99S
NEW YORK CITY  PTCLDY    44  31  60 W6        29.99F
CENTRAL PARK   CLEAR     42  30  62 W6        30.01F
$$

NYZ005>009-017-018-044>046-055-056-080800-
CENTRAL


CITY           SKY/WX    TMP DP  RH WIND       PRES   REMARKS
FULTON         CLOUDY    35  26  69 S6        29.94F WCI  30
SYRACUSE       CLOUDY    35  27  72 SW7       29.95S WCI  29
ROME           CLOUDY    30  29  96 CALM      29.96F
ELMIRA         CLOUDY    34  24  67 SW5       29.98R WCI  30
BINGHAMTON     CLOUDY    31  25  78 W8        29.93R WCI  23
MONTICELLO     CLEAR     30  30 100 CALM      29.96R
$$

NYZ026>034-041>043-087-080800-
NORTH


CITY           SKY/WX    TMP DP  RH WIND       PRES   REMARKS
WATERTOWN      CLOUDY    38  31  76 W8        29.90F WCI  32
FORT DRUM      NOT AVBL
OGDENSBURG     FAIR      34  29  84 S6        29.88F WCI  28
MASSENA        CLOUDY    34  25  69 S8        29.89F WCI  27
SARANAC LAKE   CLOUDY    30  27  88 MISG      29.83F
PLATTSBURGH    CLOUDY    34  29  82 CALM      29.90F
$$

NYZ001>004-010>016-019>021-085-080800-
WEST


CITY           SKY/WX    TMP DP  RH WIND       PRES   REMARKS
NIAGARA FALLS  MOCLDY    34  23  64 W13       29.94R WCI  25
BUFFALO        CLOUDY    34  24  67 W10       29.93F WCI  26
DUNKIRK        MOCLDY    35  25  66 SW16      29.95F WCI  25
JAMESTOWN      MOCLDY    30  19  64 SW10      29.94S WCI  21
WELLSVILLE     PTCLDY    29  19  66 SW10      29.94R WCI  20
ROCHESTER      CLOUDY    35  25  66 SW6       29.94S WCI  30
PENN YAN       CLOUDY    35  23  61 SW13      29.95S WCI  26
$$

             KEY
       WCI = WIND CHILL INDEX
       VSB = VISIBILITY
       HX  = HEAT INDEX
$$



USA.gov is the U.S. government's official web portal to all federal, state and local government web resources and services.